EHI
13 14 13 11 11 11 8 7 7 5 4 4 3 1 0 0 0 0 0 0 0 0 0 0 0 0 0 0 0 0 0 0 0 0 0 0 0 0
11 12 12 12 12 12 11 9 9 6 4 4 4 1 0 0 0 0 0 0 0 0 0 0 0 0 0 0 0 0 0 0 0 0 0 0 0 0
8 9 10 10 11 13 12 11 10 8 5 4 3 1 1 0 0 0 0 0 0 0 0 0 0 0 0 0 0 0 0 0 0 0 0 0 0 0
7 8 8 8 10 12 13 12 10 9 6 4 3 1 1 0 0 0 0 0 0 0 0 0 0 0 0 0 0 0 0 0 0 0 0 0 0 0
7 8 8 8 10 11 12 11 10 9 7 5 4 2 1 1 1 1 1 0 0 0 0 0 0 0 0 0 0 0 0 0 0 0 0 0 0 0
7 8 9 9 9 10 10 10 9 8 7 5 3 3 3 3 3 2 1 1 0 0 0 0 0 0 0 0 0 0 0 0 0 0 0 0 0 0
6 7 7 5 6 6 7 7 7 7 6 5 3 2 3 5 5 3 2 2 1 1 1 0 0 0 0 0 0 0 0 0 0 0 0 0 0 0
5 5 4 2 2 2 2 2 3 3 4 4 2 1 2 4 5 4 3 3 2 2 2 1 0 0 0 0 0 0 0 0 0 0 0 0 0 0
5 4 3 1 1 1 1 0 1 1 2 2 1 0 1 2 3 4 4 3 3 3 2 1 0 0 0 0 0 0 0 0 0 0 0 0 0 0
5 5 4 3 1 2 2 2 2 2 1 0 0 0 1 1 2 2 3 3 2 2 2 1 0 0 0 0 0 0 0 0 0 0 0 0 0 0
5 4 4 3 1 1 2 3 3 3 1 0 0 0 0 0 0 1 1 1 1 1 1 1 0 0 0 0 0 0 0 0 0 0 0 0 0 0
5 4 2 1 0 1 2 3 3 3 2 1 1 0 0 0 0 0 0 0 0 0 1 1 1 1 1 0 0 0 0 0 0 0 0 0 0 0
5 5 3 1 0 0 1 2 3 3 3 3 2 1 0 0 0 0 1 1 0 0 1 2 3 2 1 0 0 0 0 0 0 0 0 0 0 0
4 4 3 1 0 0 0 1 1 2 2 3 3 2 1 0 0 1 2 2 1 0 1 2 2 2 1 0 0 0 0 0 0 0 0 0 0 0
2 2 1 0 0 0 0 0 0 0 1 3 3 3 1 0 0 1 2 3 1 0 0 1 1 1 0 0 1 0 0 0 0 0 0 0 0 0
2 1 1 1 0 0 0 0 0 0 1 2 3 3 2 0 0 1 2 3 2 0 0 0 0 0 0 0 0 0 0 0 0 0 0 0 0 0
3 3 2 1 1 1 1 0 0 0 1 2 3 3 1 0 0 1 2 2 1 0 0 0 0 0 0 0 0 0 0 0 0 0 0 0 0 0
2 2 2 1 1 1 2 1 0 1 1 2 2 2 1 0 0 1 1 1 0 0 0 0 0 0 0 0 0 0 0 0 0 0 0 0 0 0
0 1 1 0 1 2 2 1 1 1 1 1 1 1 0 0 0 0 0 0 0 0 0 0 0 0 0 0 0 0 0 0 0 0 0 1 1 0
0 0 0 0 1 1 1 1 2 2 2 1 0 0 0 0 0 0 0 0 0 0 0 0 0 0 0 0 0 0 0 0 0 0 0 1 1 1
0 0 0 0 1 1 0 1 3 3 2 1 0 0 0 1 0 0 0 0 0 0 0 0 0 0 0 0 0 0 0 0 0 0 0 1 1 0
1 1 0 0 0 0 0 1 2 1 1 0 0 0 0 0 0 0 0 0 0 0 0 0 0 0 0 0 0 0 0 0 0 0 0 0 0 0
2 2 1 0 0 0 0 0 1 0 0 0 0 0 0 0 0 0 0 0 0 0 0 0 0 0 0 0 0 0 0 0 0 0 0 0 0 0
Wind_Speed
3 3 4 2 3 3 3 3 3 2 1 2 1 1 1 1 2 1 1 5 3 2 2 1 1 0 0 0 1 2 3 4 4 4 5 6 6 6
2 3 3 3 2 3 3 3 3 3 2 0 1 1 0 0 3 1 1 6 4 3 2 1 1 1 0 0 1 2 2 3 5 5 6 7 7 7
3 3 3 3 3 3 2 2 2 2 2 1 1 2 1 1 1 1 1 2 4 5 4 2 2 1 0 0 1 2 2 3 3 5 6 6 6 7
3 3 3 2 2 3 2 2 2 2 2 2 1 1 2 1 1 2 1 1 1 6 5 4 2 2 1 1 2 2 2 3 3 3 4 4 5 5
2 2 2 2 2 2 2 2 2 2 2 2 2 1 1 1 1 2 1 1 2 4 7 6 4 3 2 2 3 3 3 3 3 3 3 4 4 4
2 2 2 2 2 2 2 3 2 2 2 3 2 2 1 2 2 2 1 1 2 2 1 2 4 5 4 3 3 2 3 3 3 3 3 3 4 4
2 2 1 1 2 2 2 1 2 3 3 3 2 2 1 1 2 2 2 2 2 1 1 2 3 3 3 4 4 2 2 2 2 2 2 2 2 2
2 1 2 2 2 3 2 2 3 3 3 3 2 2 2 2 2 2 2 2 2 1 2 2 2 1 1 1 3 3 2 2 1 2 2 2 2 2
1 2 2 1 2 2 3 5 3 3 4 4 3 3 2 2 2 2 1 2 2 2 2 2 1 2 2 1 5 3 2 2 2 2 1 1 1 1
1 1 1 1 2 2 2 1 2 2 3 3 3 3 3 2 2 3 2 3 3 2 2 3 2 2 2 1 5 5 4 3 3 3 2 2 2 1
1 0 0 1 2 3 2 2 2 1 2 2 1 1 1 2 3 3 3 3 3 2 2 3 2 2 3 2 4 8 6 5 5 4 4 4 4 4
2 2 2 1 2 3 2 2 2 1 1 2 2 3 3 3 4 4 3 3 2 1 1 3 3 2 3 2 1 3 4 5 6 5 5 5 5 5
2 2 2 2 1 3 3 2 2 3 2 2 1 1 1 1 2 1 2 3 3 2 1 3 3 3 3 3 2 2 2 2 3 4 5 6 6 5
2 1 2 2 2 3 2 1 3 5 3 2 1 1 1 1 1 1 2 3 3 3 3 3 3 3 4 4 3 2 2 2 2 2 2 5 6 6
1 2 0 2 4 3 4 4 4 3 3 2 2 1 1 1 1 2 2 2 3 3 2 3 4 4 4 4 3 3 3 2 2 2 3 3 3 3
2 2 4 4 4 2 3 4 3 2 3 2 2 2 1 1 2 2 2 2 2 2 2 3 4 4 4 4 4 3 3 2 2 3 3 3 3 3
1 2 2 2 3 2 2 2 2 2 2 2 2 2 2 2 2 2 2 3 3 3 2 2 3 3 4 4 4 3 3 3 3 2 4 4 3 3
3 3 3 3 3 2 2 2 2 2 2 2 3 2 3 3 3 3 3 4 4 3 3 2 2 3 4 3 3 4 3 3 3 3 4 4 4 2
4 4 3 3 3 3 2 2 2 2 2 3 3 3 3 3 3 3 3 4 4 4 3 3 3 4 5 4 3 4 5 4 4 4 4 4 4 2
4 4 3 3 3 3 3 3 3 2 2 3 3 3 3 3 3 4 4 4 4 4 4 3 3 4 5 5 4 3 5 5 4 4 4 3 3 1
4 4 4 4 3 3 3 3 3 2 3 3 3 4 4 4 4 4 4 4 5 5 5 4 3 5 5 5 5 4 3 4 3 3 4 4 4 3
4 4 4 4 4 3 3 3 3 3 3 3 3 4 4 4 4 5 5 5 5 5 5 4 3 4 5 6 5 4 4 3 4 4 3 4 4 3
4 4 3 4 4 3 3 4 4 3 3 3 3 3 4 4 5 5 5 5 5 5 5 4 4 4 5 5 5 5 4 4 3 4 4 6 6 5
Wind_Direction
261 245 254 250 246 245 242 244 253 251 217 164 185 169 186 126 105 149 103 107 118 128 128 135 151 155 246 266 255 234 225 227 238 237 236 240 244 248
270 281 275 268 260 247 238 247 252 258 260 153 135 105 73 217 136 185 143 131 128 133 131 140 140 143 150 269 270 260 247 242 248 248 245 245 247 249
257 253 260 279 275 261 248 246 242 234 244 256 127 124 166 245 152 223 201 185 141 137 136 142 150 145 143 301 287 270 264 263 261 257 255 252 252 250
264 264 267 259 257 263 254 243 245 238 240 236 223 197 179 195 202 248 238 198 154 135 151 158 164 175 203 238 258 269 274 272 271 271 267 262 258 255
272 266 262 260 261 258 245 237 236 231 226 234 229 204 208 193 222 223 210 248 245 162 168 174 178 178 198 232 247 253 260 266 268 267 267 271 266 265
266 263 262 264 268 258 237 230 232 231 221 228 226 206 196 197 222 223 205 213 252 240 181 190 176 187 203 218 229 236 245 253 259 261 261 268 264 266
243 258 279 324 353 306 293 268 238 232 227 223 220 211 207 220 238 244 243 240 238 251 234 224 195 208 198 202 202 204 221 237 248 253 258 265 265 270
242 255 225 197 184 209 249 297 299 265 256 252 248 240 234 241 261 262 260 262 262 249 264 255 232 242 255 266 116 151 189 215 239 252 257 255 255 257
241 263 283 16 235 230 192 201 226 263 276 273 271 276 263 249 257 257 266 274 280 270 264 268 261 261 262 106 129 150 178 201 223 237 237 220 234 244
228 256 286 321 7 315 268 223 227 224 240 240 264 277 287 291 259 250 247 247 245 226 245 266 265 275 287 189 151 169 182 198 211 221 215 209 208 221
174 69 331 80 21 320 264 239 232 214 175 182 230 256 307 291 285 266 245 244 245 227 228 263 260 270 274 246 169 171 183 194 205 216 223 227 221 214
179 162 97 46 346 315 264 253 252 272 275 183 192 207 216 213 227 257 271 266 269 254 218 265 263 268 269 263 236 187 189 186 195 208 217 226 230 238
214 196 125 126 246 295 285 292 308 290 256 231 202 198 201 216 224 240 285 288 291 290 288 269 276 271 263 269 268 251 239 221 203 203 204 210 219 242
250 240 107 157 226 257 264 287 284 277 256 244 232 235 239 249 260 268 274 279 288 289 297 285 277 274 269 266 270 267 263 259 250 243 238 191 205 225
290 44 51 235 237 215 201 225 244 251 259 260 261 263 270 281 261 233 233 249 261 267 255 261 264 265 268 269 266 264 268 264 259 259 256 244 234 222
224 182 200 218 238 247 204 212 233 261 270 269 271 270 262 243 252 253 247 240 246 254 240 248 259 265 264 272 274 272 269 263 250 262 272 264 251 243
272 233 229 221 226 225 228 228 243 241 252 266 262 254 249 246 256 263 262 255 252 246 235 231 233 244 263 274 263 262 261 259 254 243 256 260 253 245
262 244 245 252 253 248 248 247 251 263 264 265 263 256 252 252 254 255 255 256 256 254 250 250 254 247 242 234 272 268 260 260 260 247 252 259 256 236
244 254 254 261 267 266 261 262 266 266 271 269 267 261 256 253 251 252 254 258 261 258 259 260 260 263 266 263 234 253 273 270 262 257 258 263 270 270
254 261 261 265 269 272 268 262 265 264 264 274 274 269 264 258 256 256 252 258 265 264 260 257 260 269 277 286 282 260 242 256 261 263 263 262 262 230
251 262 267 269 270 271 272 271 268 264 271 274 273 275 271 263 258 258 258 263 267 264 261 258 267 271 271 274 269 258 237 216 258 273 279 267 255 242
261 263 268 271 271 274 273 264 259 258 255 256 269 274 272 266 258 258 259 255 255 261 266 262 248 247 250 256 264 264 256 220 193 204 244 272 286 285
266 268 264 262 266 273 272 270 268 265 269 272 271 272 272 268 260 256 256 257 260 263 264 259 253 256 257 257 266 273 269 259 247 225 213 202 210 225